M0CJS Weather Reports


time (UTC)temp
F
wind
direction
speed
knots
gust
knots
rain 1hr
in
rain 24hr
in
rain mn
in
humidity
%
barometer
mb
20260506204517 44 68 1.7 6.1 0.00 0.00 0.00 86 1017.1
20260506203517 44 90 0.9 3.5 0.00 0.00 0.00 86 1017.1
20260506202537 44 0.0 1.7 0.00 0.00 0.00 85 1017.0
20260506201517 45 68 0.9 3.5 0.00 0.00 0.00 85 1017.0
20260506200517 45 68 0.9 3.5 0.00 0.00 0.00 84 1016.8
20260506195517 46 68 1.7 5.2 0.00 0.00 0.00 83 1016.8
20260506194517 46 68 0.9 3.5 0.00 0.00 0.00 83 1016.8
20260506193537 47 68 1.7 5.2 0.00 0.00 0.00 82 1016.8
20260506192517 47 68 0.9 2.6 0.00 0.00 0.00 82 1016.7
20260506191537 47 90 0.9 3.5 0.00 0.00 0.00 82 1016.7
20260506191017 47 68 1.7 5.2 0.00 0.00 0.00 82 1016.7
20260506190018 48 68 1.7 4.3 0.00 0.00 0.00 81 1016.7
20260506185017 48 90 1.7 3.5 0.00 0.00 0.00 80 1016.7
20260506184036 48 45 1.7 5.2 0.00 0.00 0.00 80 1016.7
20260506183036 48 45 2.6 6.1 0.00 0.00 0.00 80 1016.7
20260506182036 48 45 2.6 5.2 0.00 0.00 0.00 80 1016.6
20260506181017 49 45 2.6 7.8 0.00 0.00 0.00 79 1016.6
20260506180016 49 68 2.6 7.0 0.00 0.00 0.00 78 1016.5
20260506175517 49 45 2.6 7.8 0.00 0.00 0.00 78 1016.4
20260506174517 49 68 2.6 8.7 0.00 0.00 0.00 78 1016.4
20260506173536 49 68 1.7 6.1 0.00 0.00 0.00 78 1016.3
20260506172536 49 45 2.6 7.0 0.00 0.00 0.00 77 1016.2
20260506171517 49 45 3.5 8.7 0.00 0.00 0.00 76 1016.2
20260506170516 50 45 4.3 8.7 0.00 0.00 0.00 77 1016.2
20260506165516 50 45 5.2 11.3 0.00 0.00 0.00 75 1016.1
20260506164516 50 45 4.3 9.6 0.00 0.00 0.00 75 1016.1
20260506163516 50 68 3.5 8.7 0.00 0.00 0.00 74 1016.1
20260506162516 50 45 5.2 9.6 0.00 0.00 0.00 74 1016.1
20260506161516 51 68 4.3 11.3 0.00 0.00 0.00 74 1016.0
20260506160516 51 45 4.3 9.6 0.00 0.00 0.00 73 1016.0
20260506155516 51 45 5.2 9.6 0.00 0.00 0.00 70 1015.9
20260506154516 52 45 4.3 9.6 0.00 0.00 0.00 69 1016.0
20260506153516 52 45 5.2 9.6 0.00 0.00 0.00 68 1016.0
20260506152517 52 45 5.2 10.4 0.00 0.00 0.00 70 1016.0
20260506151516 52 45 5.2 11.3 0.00 0.00 0.00 70 1016.0
20260506150516 52 45 4.3 7.8 0.00 0.00 0.00 69 1016.1
20260506145516 52 45 4.3 8.7 0.00 0.00 0.00 68 1016.1
20260506144516 52 45 6.1 10.4 0.00 0.00 0.00 68 1016.1
20260506143516 52 45 7.0 11.3 0.00 0.00 0.00 67 1016.1
20260506142536 53 45 6.1 11.3 0.00 0.00 0.00 63 1016.1
20260506141516 55 45 6.1 11.3 0.00 0.00 0.00 61 1016.0
20260506140536 55 45 3.5 7.8 0.00 0.00 0.00 62 1016.1
20260506135536 54 45 4.3 9.6 0.00 0.00 0.00 62 1016.1
20260506134516 54 45 5.2 10.4 0.00 0.00 0.00 61 1016.1
20260506133516 54 45 5.2 9.6 0.00 0.00 0.00 60 1016.2
20260506132516 53 45 6.1 9.6 0.00 0.00 0.00 59 1016.2
20260506131516 54 45 6.1 9.6 0.00 0.00 0.00 60 1016.2
20260506130516 54 45 4.3 9.6 0.00 0.00 0.00 58 1016.3
20260506125516 53 45 4.3 12.2 0.00 0.00 0.00 58 1016.2
20260506124516 54 45 5.2 10.4 0.00 0.00 0.00 58 1016.2
20260506123516 55 45 7.0 14.8 0.00 0.00 0.00 58 1016.1
20260506122516 55 45 4.3 8.7 0.00 0.00 0.00 56 1016.2
20260506121536 54 45 4.3 8.7 0.00 0.00 0.00 59 1016.2
20260506120516 53 45 4.3 8.7 0.00 0.00 0.00 61 1016.4
20260506115516 54 45 5.2 8.7 0.00 0.00 0.00 62 1016.4
20260506114536 55 45 5.2 12.2 0.00 0.00 0.00 59 1016.3
20260506113516 56 45 5.2 9.6 0.00 0.00 0.00 61 1016.5
20260506112516 54 45 4.3 7.8 0.00 0.00 0.00 64 1016.5
20260506111516 52 45 5.2 9.6 0.00 0.00 0.00 64 1016.6
20260506110515 53 45 5.2 8.7 0.00 0.00 0.00 64 1016.7
20260506105516 53 45 3.5 7.0 0.00 0.00 0.00 63 1016.6
20260506104516 53 45 3.5 6.1 0.00 0.00 0.00 66 1016.7
20260506103516 54 45 3.5 7.8 0.00 0.00 0.00 64 1016.7
20260506102515 53 45 4.3 9.6 0.00 0.00 0.00 67 1016.7
20260506101536 51 45 4.3 9.6 0.00 0.00 0.00 70 1016.8
20260506100515 51 45 3.5 7.8 0.00 0.00 0.00 72 1016.8
20260506095555 51 45 6.1 10.4 0.00 0.00 0.00 71 1016.7
20260506094515 51 45 3.5 5.2 0.00 0.00 0.00 71 1016.7
20260506093515 52 45 4.3 11.3 0.00 0.00 0.00 70 1016.8
20260506092535 52 45 4.3 9.6 0.00 0.00 0.00 71 1016.8
20260506091515 51 45 6.1 15.6 0.00 0.00 0.00 70 1016.7
20260506090516 50 45 5.2 10.4 0.00 0.00 0.00 74 1016.6
20260506085515 48 45 4.3 9.6 0.00 0.00 0.00 76 1016.7
20260506084535 48 45 5.2 9.6 0.00 0.00 0.00 75 1016.7
20260506083515 48 45 4.3 8.7 0.00 0.00 0.00 75 1016.8
20260506082515 48 45 3.5 7.8 0.00 0.00 0.00 76 1016.8
20260506081515 48 45 3.5 7.8 0.00 0.00 0.00 76 1016.8
20260506080515 48 45 3.5 8.7 0.00 0.00 0.00 75 1016.7
20260506073515 49 45 5.2 10.4 0.00 0.00 0.00 73 1016.7
20260506072515 49 45 6.1 12.2 0.00 0.00 0.00 73 1016.8
20260506071517 49 45 6.1 11.3 0.00 0.00 0.00 75 1016.7
20260506070537 48 45 7.0 11.3 0.00 0.00 0.00 75 1016.6
20260506062517 45 45 4.3 9.6 0.00 0.00 0.00 79 1016.6
20260506061517 44 45 4.3 9.6 0.00 0.00 0.00 79 1016.4
20260506060517 44 45 5.2 9.6 0.00 0.00 0.00 80 1016.3
20260506050517 44 45 1.7 4.3 0.00 0.00 0.00 85 1016.1
20260506044517 43 45 0.9 3.5 0.00 0.00 0.00 85 1016.2
20260506043517 43 23 1.7 3.5 0.00 0.00 0.00 85 1015.9
20260506042517 43 45 2.6 5.2 0.00 0.00 0.00 85 1016.0
20260506041537 43 45 3.5 7.8 0.00 0.00 0.00 85 1016.0
20260506040517 43 45 3.5 7.0 0.00 0.00 0.00 85 1016.1
20260506035517 44 45 2.6 5.2 0.00 0.00 0.00 85 1016.1
20260506034517 44 45 3.5 7.0 0.00 0.00 0.00 85 1016.1
20260506033517 44 45 2.6 7.8 0.00 0.00 0.00 85 1016.2
20260506032517 44 45 3.5 6.1 0.00 0.00 0.00 84 1016.3
20260506031517 44 45 3.5 7.0 0.00 0.00 0.00 84 1016.3
20260506030517 44 45 3.5 6.1 0.00 0.00 0.00 84 1016.2
20260506025537 44 45 2.6 7.0 0.00 0.00 0.00 84 1016.3
20260506024537 44 45 2.6 5.2 0.00 0.00 0.00 84 1016.2
20260506023516 44 45 2.6 3.5 0.00 0.00 0.00 83 1016.2
20260506022516 44 45 1.7 4.3 0.00 0.00 0.00 83 1016.2
20260506021517 44 45 2.6 5.2 0.00 0.00 0.00 83 1016.3
20260506020516 44 45 1.7 4.3 0.00 0.00 0.00 82 1016.3
20260506015517 44 45 2.6 5.2 0.00 0.00 0.00 82 1016.4
20260506014556 45 45 1.7 5.2 0.00 0.00 0.00 81 1016.4
20260506013517 45 45 3.5 7.8 0.00 0.00 0.00 81 1016.5
20260506012516 45 45 2.6 7.0 0.00 0.00 0.00 80 1016.4
20260506011517 45 45 4.3 7.8 0.00 0.00 0.00 80 1016.4
20260506010517 45 45 4.3 8.7 0.00 0.00 0.00 79 1016.5
20260506005517 45 45 4.3 9.6 0.00 0.00 0.00 79 1016.4
20260506004516 45 45 7.8 12.2 0.00 0.00 0.00 79 1016.4
20260506003516 45 45 4.3 8.7 0.00 0.00 0.00 80 1016.3
20260506002517 46 45 5.2 10.4 0.00 0.00 0.00 79 1016.4
20260506001518 46 45 6.1 10.4 0.00 0.00 0.00 79 1016.4
20260506000516 46 45 6.1 11.3 0.00 0.00 0.00 79 1016.5
20260505235518 46 45 7.0 11.3 0.00 0.00 0.00 81 1016.5
20260505234516 46 45 4.3 7.8 0.00 0.00 0.00 82 1016.5
20260505233518 46 45 4.3 7.0 0.00 0.00 0.00 82 1016.6
20260505232516 47 45 3.5 5.2 0.00 0.00 0.00 81 1016.6
20260505231516 47 45 3.5 9.6 0.00 0.00 0.00 81 1016.6
20260505230518 47 45 4.3 8.7 0.00 0.00 0.00 80 1016.8
20260505225516 47 45 5.2 11.3 0.00 0.00 0.00 80 1016.8
20260505224516 47 45 5.2 8.7 0.00 0.00 0.00 82 1016.7
20260505223518 47 45 5.2 10.4 0.00 0.00 0.00 82 1016.7
20260505222536 48 45 4.3 8.7 0.00 0.00 0.00 82 1016.7
20260505221538 48 45 2.6 6.1 0.00 0.00 0.00 81 1016.7
20260505220516 48 45 3.5 8.7 0.00 0.00 0.00 81 1016.6
20260505215518 48 45 3.5 9.6 0.00 0.00 0.00 80 1016.6
20260505214518 48 45 4.3 9.6 0.00 0.00 0.00 79 1016.7
20260505213516 49 45 5.2 11.3 0.00 0.00 0.00 78 1016.7
20260505212538 49 45 2.6 9.6 0.00 0.00 0.00 78 1016.6
20260505211516 49 45 6.1 13.0 0.00 0.00 0.00 77 1016.6
20260505210516 49 45 5.2 12.2 0.00 0.00 0.00 80 1016.4
20260505205516 50 45 4.3 8.7 0.00 0.00 0.00 83 1016.4